#timestamp,LO_Frequency,Hit,StdDev 
1663318815.1,286046998.3,N
1663318816.0,286046998.3,N
1663318835.8,286046999.0,N
1663318855.7,286046999.4,N
1663318875.5,286046999.0,N
1663318895.3,286046998.2,N
1663318915.2,286046998.6,N
1663318935.0,286047000.7,N
1663318935.9,286047000.7,N
1663318955.8,286046998.1,N
1663318975.6,286046998.1,N
1663318995.4,286047001.2,N
1663319015.3,286046999.0,N
1663319035.1,286046998.3,N
1663319055.9,286046998.5,N
1663319075.7,286047001.2,N
1663319095.5,286047000.9,N
1663319115.4,286047001.2,N
1663319135.2,286047001.1,N
1663319155.0,286046998.1,N
1663319155.9,286046998.1,N
1663319175.8,286047000.9,N
1663319195.6,286047000.5,N
1663319215.5,286046999.9,N
1663319235.3,286047000.4,N
1663319255.1,286047000.3,N
1663319275.9,286047000.0,N
1663319295.7,286046999.9,N
1663319315.5,286046999.7,N
1663319335.4,286047002.7,N
1663319355.2,286047002.3,N
1663319375.1,286047002.7,N
1663319376.0,286047002.7,N
1663319395.8,286047002.4,N
1663319415.6,286047002.1,N
1663319435.5,286047002.2,N
1663319455.3,286047001.3,N
1663319475.1,286047004.0,N
1663319495.9,286047001.4,N
1663319515.7,286047001.7,N
1663319535.6,286047001.7,N
1663319555.4,286047004.4,N
1663319575.2,286047001.5,N
1663319595.1,286047004.2,N
1663319596.0,286047004.2,N
1663319615.8,286047004.0,N
1663319635.6,286047004.3,N
1663319655.5,286047001.5,N
1663319675.3,286047001.3,N
1663319695.2,286047001.4,N
1663319715.9,286047001.6,N
1663319735.7,286047003.9,N
1663319755.6,286047003.9,N
1663319775.4,286047001.8,N
1663319795.2,286047003.9,N
1663319815.1,286047003.9,N
1663319816.0,286047003.9,N
1663319835.8,286047003.2,N
1663319855.7,286047003.2,N
1663319875.5,286047001.6,N
1663319895.3,286047004.4,Y
1663319915.2,286046999.7,P
1663319935.0,286047000.1,N
1663319935.9,286047000.1,N
1663319955.8,286047002.7,N
1663319975.6,286047002.4,N
1663319995.4,286047002.2,N
1663320015.3,286047001.8,N
1663320035.1,286047001.3,N
1663320055.8,286047001.3,N
1663320075.7,286047002.3,N
1663320095.5,286047000.3,N
1663320115.4,286047002.4,N
1663320135.2,286047002.4,N
1663320155.0,286047000.0,N
1663320155.9,286047000.0,N
1663320175.8,286046999.9,N
1663320195.6,286046999.8,N
1663320215.4,286046999.7,N
1663320235.3,286047001.7,N
1663320255.1,286046999.7,N
1663320275.9,286047002.3,N
1663320295.7,286047001.9,N
1663320315.5,286047002.4,N
1663320335.4,286047002.0,N
1663320355.2,286047001.7,N
1663320375.0,286047001.4,N
1663320376.0,286047001.4,N
1663320395.8,286047004.4,Y
1663320415.6,286047004.4,P
1663320435.5,286047004.2,N
1663320455.3,286047003.5,N
1663320475.1,286047002.6,N
1663320495.9,286046999.8,N
1663320515.7,286047002.7,N
1663320535.6,286047000.5,N
1663320555.4,286046999.9,N
1663320575.2,286047002.3,N
1663320595.1,286047001.6,N
1663320596.0,286047001.6,N
1663320615.8,286047001.9,N
1663320635.6,286047004.2,N
1663320655.5,286047001.6,N
1663320675.3,286047001.7,N
1663320695.2,286047001.7,N
1663320715.9,286047001.5,N
1663320735.7,286047004.2,Y
1663320755.6,286047002.2,P
1663320775.4,286047000.0,N
1663320795.2,286047001.0,N
1663320815.1,286047001.2,N
1663320816.0,286047001.2,N
1663320835.8,286047000.0,N
1663320855.7,286047000.6,N
1663320875.5,286047000.7,N
1663320895.3,286047001.0,N
1663320915.2,286047002.8,Y
1663320935.0,286047000.6,P
1663320935.9,286047000.6,N
1663320955.8,286047001.0,P
1663320975.6,286047000.6,N
1663320995.4,286046998.2,Y
1663321015.3,286046998.7,P
1663321035.1,286046998.6,N
1663321055.8,286047001.0,N
1663321075.7,286047000.6,N
1663321095.5,286046999.4,N
1663321115.4,286046999.1,N
1663321135.2,286046999.4,N
1663321155.0,286046998.6,N
1663321155.9,286046998.6,N
1663321175.8,286047001.0,N
1663321195.6,286047000.5,N
1663321215.4,286047001.1,N
1663321235.3,286047001.0,N
1663321255.1,286047002.6,N
1663321275.9,286047001.5,N
1663321295.7,286047001.8,N
1663321315.5,286046999.7,N
1663321335.4,286047000.0,N
1663321355.2,286047000.1,N
1663321375.1,286047000.9,N
1663321376.0,286047000.9,N
1663321395.8,286046999.8,N
1663321415.6,286047002.4,N
1663321435.5,286047000.2,N
1663321455.3,286047002.2,N
1663321475.2,286047000.3,N
1663321495.9,286047001.2,N
1663321515.7,286047000.5,N
1663321535.6,286046998.6,N
1663321555.4,286047000.4,N
1663321575.2,286047000.7,N
1663321595.1,286046998.2,N
1663321596.0,286046998.2,N
1663321615.8,286046998.5,N
1663321635.7,286046998.7,N
1663321655.5,286046999.1,N
1663321675.3,286046999.5,N
1663321695.2,286046999.4,N
1663321715.0,286046998.2,N
1663321715.9,286046998.2,N
1663321735.8,286046998.4,N
1663321755.6,286047001.1,N
1663321775.4,286046998.9,N
1663321795.3,286046998.9,N
1663321815.1,286046998.6,N
1663321835.9,286047001.0,N
1663321855.7,286047001.2,N
1663321875.5,286047000.2,N
1663321895.4,286047000.2,N
1663321915.2,286047000.8,N
1663321935.1,286046999.2,N
1663321936.0,286046999.2,N
1663321955.8,286047000.5,N
1663321975.6,286047000.3,N
1663321995.5,286047000.4,N
1663322015.3,286047002.2,N
1663322035.2,286046999.9,N
1663322055.9,286047002.7,N
1663322075.7,286047002.1,N
1663322095.6,286047001.6,N
1663322115.4,286047001.6,N
1663322135.2,286047002.1,N
1663322155.1,286047002.0,N
1663322156.0,286047002.0,N
1663322175.8,286047001.9,N
1663322195.7,286047001.6,N
1663322215.5,286047001.3,N
1663322235.3,286047002.2,N
1663322255.2,286047002.2,N
1663322275.0,286047001.8,N
1663322275.9,286047001.8,N
1663322295.8,286047003.7,Y
1663322315.6,286047001.4,P
1663322335.4,286047004.4,P
1663322355.3,286047001.4,N
1663322375.1,286047000.1,N
1663322395.9,286047000.5,N
